Location: Brunnen
(48.6541°N, 10.9920°E)
Time: 08:28:38
(UTC+00:00)

IGS 5A - Pass Details

Date: 01 June 2020
Orbit: 584 x 587 km, 97.6° (Epoch: 12 July)

Event Time Altitude Azimuth Distance (km) Brightness Sun altitude
Exits shadow 19:55:28 - 149° (SSE) 2,126 5.7 -6.5°
Reaches altitude 10° 19:56:00 10° 147° (SSE) 1,909 5.4 -6.5°
Maximum altitude 20:00:02 52° 72° (ENE) 741 3.8 -7.0°
Drops below altitude 10° 20:04:05 10° 356° (N) 1,925 6.9 -7.4°
Sets 20:06:17 0° 352° (N) 2,831 8.0 -7.7°
